This is the latest recevied weather packets stored in our database for station/object N8HON. If no packets are shown the sender has not sent any weather packets the latest 10 day(s).
| Time | Temp. | Humidity | Pressure | Rain* | Wind** | Luminosity | Snow |
|---|---|---|---|---|---|---|---|
| 1777559324 | 12.22° C | 64% | 1009.5 hPa | 0 mm | - | 234 W/m² | - |
| 1777559020 | 12.22° C | 60% | 1009.6 hPa | 0 mm | - | 372 W/m² | - |
| 1777558716 | 12.22° C | 67% | 1009.2 hPa | 0 mm | - | 576 W/m² | - |
| 1777558412 | 12.22° C | 64% | 1009.5 hPa | 0 mm | - | 235 W/m² | - |
| 1777558108 | 11.67° C | 67% | 1009.5 hPa | 0 mm | - | 239 W/m² | - |
| 1777557805 | 11.67° C | 65% | 1009.6 hPa | 0 mm | - | 232 W/m² | - |
| 1777557501 | 11.11° C | 64% | 1009.7 hPa | 0 mm | - | 350 W/m² | - |
| 1777557198 | 11.11° C | 68% | 1009.9 hPa | 0 mm | - | 231 W/m² | - |
| 1777556894 | 11.11° C | 68% | 1009.7 hPa | 0 mm | - | 195 W/m² | - |
| 1777556590 | 10.56° C | 70% | 1009.9 hPa | 0 mm | - | 196 W/m² | - |
| 1777556289 | 10.56° C | 71% | 1009.9 hPa | 0 mm | - | 132 W/m² | - |
| 1777555986 | 10.56° C | 71% | 1009.8 hPa | 0 mm | - | 110 W/m² | - |
| 1777555686 | 10.56° C | 70% | 1009.8 hPa | 0 mm | - | 90 W/m² | - |
| 1777555383 | 10.56° C | 72% | 1009.8 hPa | 0 mm | - | 88 W/m² | - |
| 1777555079 | 10.56° C | 70% | 1009.5 hPa | 0 mm | - | 95 W/m² | - |
| 1777554777 | 10.56° C | 71% | 1009.7 hPa | 0 mm | - | 101 W/m² | - |
| 1777554474 | 10.56° C | 72% | 1009.5 hPa | 0 mm | - | 104 W/m² | - |
| 1777554170 | 10.56° C | 71% | 1009.5 hPa | 0 mm | - | 96 W/m² | - |
| 1777553867 | 10° C | 71% | 1009.5 hPa | 0 mm | - | 90 W/m² | - |
| 1777553563 | 10° C | 73% | 1009.6 hPa | 0 mm | - | 81 W/m² | - |
| 1777553259 | 10° C | 73% | 1009.3 hPa | 0 mm | - | 73 W/m² | - |
| 1777552955 | 10° C | 72% | 1009.3 hPa | 0 mm | - | 65 W/m² | - |
| 1777552650 | 10° C | 72% | 1009.2 hPa | 0 mm | - | 43 W/m² | - |
| 1777552348 | 10.56° C | 71% | 1009 hPa | 0 mm | - | 35 W/m² | - |
| 1777552044 | 10.56° C | 69% | 1009 hPa | 0 mm | - | 45 W/m² | - |
* Rain latest hour (hover to see other rain measurements)
** Current wind speed in m/s (hover to see current wind gust speed)